Regional Weather Roundup
Issued by NWS

Home | Current Version | Previous Version | Text Only | Print | Product List | Glossary Off
Versions: 1 2 3 4 5 6 7 8 9 10 11 12 13 14 15 16 17 18 19 20 21 22 23 24 25 26 27 28 29 30 31 32 33 34 35 36 37 38 39 40 41 42 43 44 45 46 47 48 49 50

133
ASUS43 KLSX 200907
RWRMO

WEATHER SUMMARY FOR MISSOURI
NATIONAL WEATHER SERVICE SPRINGFIELD MO
400 AM CDT SUN AUG 20 2017

NOTE: "FAIR" INDICATES FEW OR NO CLOUDS BELOW 12,000 FEET WITH NO
       SIGNIFICANT WEATHER AND/OR OBSTRUCTIONS TO VISIBILITY.
       CURRENT SKY AND/OR WEATHER CONDITIONS ARE NOT AVAILABLE FOR
       CHILLICOTHE AND FARMINGTON.

MOZ001>031-035>038-043-044-053-054-201000-
...NORTHERN AND WESTERN MISSOURI...

CITY           SKY/WX    TMP DP  RH WIND       PRES   REMARKS
KANSAS CTY INT CLOUDY    78  74  87 S10       29.90F
KANSAS C DTWN  CLOUDY    82  75  79 S6        29.90F
LEE`S SUMMIT   CLOUDY    78  74  87 S9        29.93F
ST JOSEPH      TSTM      74  67  78 NW28G43   29.95R
CHILLICOTHE      N/A     73  69  87 SE3       29.93F
KIRKSVILLE     CLOUDY    66  61  84 S5        29.96S

$$
MOZ066>068-077>081-088>096-101>105-201000-
...SOUTHWEST MISSOURI...

CITY           SKY/WX    TMP DP  RH WIND       PRES   REMARKS
SPRINGFIELD    CLEAR     75  74  96 S5        29.99R
JOPLIN         CLOUDY    82  75  79 SW8       29.98R
BRANSON        MOCLDY    75  73  94 CALM      30.01R

$$
MOZ032>034-039>042-045>050-055>058-069>072-201000-
...CENTRAL MISSOURI...

CITY           SKY/WX    TMP DP  RH WIND       PRES   REMARKS
COLUMBIA       CLEAR     73  70  90 SE5       29.97R
JEFFERSON CITY CLEAR     69  69 100 CALM      29.95R
ROLLA          CLOUDY    68  68 100 S7        29.99R
SEDALIA        CLOUDY    75  73  93 SW6       29.96R
WHITEMAN AFB   PTCLDY    74  74 100 S7        29.94R
WARRENSBURG    PTCLDY    73  70  88 SE5       29.93S
OSAGE BEACH    CLOUDY    70  69  97 CALM      29.97R

$$
MOZ051-052-059>065-201000-
...EAST CENTRAL MISSOURI...

CITY           SKY/WX    TMP DP  RH WIND       PRES   REMARKS
ST LOUIS INTL  CLOUDY    76  70  82 CALM      29.96S
SPIRIT OF STL  CLOUDY    69  69 100 CALM      29.95S
ST CHARLES     CLOUDY    70  68  93 CALM      29.95R

$$
MOZ072>076-082>087-097>100-106>115-201000-
...SOUTH CENTRAL AND SOUTHEAST MISSOURI...

CITY           SKY/WX    TMP DP  RH WIND       PRES   REMARKS
CAPE GIRARDEAU CLEAR     70  69  97 SE3       29.97S
FARMINGTON     CLEAR     69  68  96 CALM      30.00S
POPLAR BLUFF   FOG       69  69 100 CALM      29.96S VSB 1/2
WEST PLAINS    CLEAR     75  70  84 SW5       30.01S

$$



USA.gov is the U.S. government's official web portal to all federal, state and local government web resources and services.